Regional Weather Roundup
Issued by NWS

Home | Current Version | Previous Version | Graphics & Text | Print | Product List | Glossary On
Versions: 1 2 3 4 5 6 7 8 9 10 11 12 13 14 15 16 17 18 19 20 21 22 23 24 25 26 27 28 29 30 31 32 33 34 35 36 37 38 39 40 41 42 43 44 45 46 47 48 49
000
ASUS43 KDMX 281807
RWRIA

WEATHER ROUNDUP FOR IOWA
NATIONAL WEATHER SERVICE DES MOINES IA
100 PM CDT THU MAY 28 2015

NOTE: "FAIR" INDICATES FEW OR NO CLOUDS BELOW 12,000 FEET WITH NO
SIGNIFICANT WEATHER AND/OR OBSTRUCTIONS TO VISIBILITY.

* - THESE STATIONS ARE NOT NWS STATIONS...THUS NOT UNDER NWS
QUALITY CONTROL.  THEY ALSO DO NOT REPORT WEATHER SUCH
AS PRECIPITATION OR FOG.

IAZ001>003-012>014-020>022-031>034-043>046-281900-
   NORTHWEST IOWA

CITY           SKY/WX    TMP DP  RH WIND       PRES   REMARKS
CARROLL *      SUNNY     77  59  53 S20G28    30.04F
CHEROKEE *     MOSUNNY   78  55  44 S17G26    30.02F
DENISON *      SUNNY     73  63  68 SE8G15    30.01F
LE MARS *      SUNNY     79  59  50 SE15G22   30.00F HX  80
ORANGE CITY *  SUNNY     79  54  41 S15G22    30.00F
SHELDON *      SUNNY     81  57  44 S22G28    30.01S HX  81
SIOUX CITY     PTSUNNY   77  60  55 SE10G21   30.00S
6HR MIN TEMP:  60; 6HR MAX TEMP:  78;

SPENCER        MOSUNNY   79  54  41 S16G26    30.03F
6HR MIN TEMP:  59; 6HR MAX TEMP:  79;

STORM LAKE *   SUNNY     75  54  46 S20G26    30.05S
$$

IAZ055>058-069>071-079>083-090>094-281900-
   SOUTHWEST IOWA

CITY           SKY/WX    TMP DP  RH WIND       PRES   REMARKS
ATLANTIC *     MOSUNNY   72  63  73 SE12G18   30.05R
AUDUBON *      MOSUNNY   73  63  68 SE13G18   30.06S
CLARINDA *     PTSUNNY   73  63  68 SE9G16    30.07S
COUNCIL BLFS * SUNNY     70  66  88 S9        30.04S
CRESTON *      MOSUNNY   70  63  78 SE16G24   30.07S
HARLAN  *      MOSUNNY   73  64  73 SE14      30.07S
LAMONI         CLOUDY    72  61  68 SE8       30.08F
6HR MIN TEMP:  65; 6HR MAX TEMP:  75;

RED OAK *      PTSUNNY   73  63  68 SE15      30.05S
SHENANDOAH *   CLOUDY    73  63  68 S14G21    30.05S
$$

IAZ047>049-059>061-072>074-084-281900-
   CENTRAL IOWA

CITY           SKY/WX    TMP DP  RH WIND       PRES   REMARKS
AMES           CLOUDY    77  58  51 S15       30.07F
6HR MIN TEMP:  60; 6HR MAX TEMP:  77;

ANKENY *       SUNNY     77  61  57 S10       30.07F
CHARITON *     SUNNY     73  61  64 SE14      30.10S
DES MOINES     CLOUDY    77  58  51 S13       30.07F
6HR MIN TEMP:  64; 6HR MAX TEMP:  78;

GRINNELL*      MOSUNNY   77  57  50 SE15G22   30.11F
KNOXVILLE *    SUNNY     77  57  50 SE14      30.08F
MARSHALLTOWN   PTSUNNY   77  57  50 S14G22    30.09F
6HR MIN TEMP:  62; 6HR MAX TEMP:  77;

PELLA *        PTSUNNY   77  63  60 SE9       30.11S
PERRY *          N/A     77  58  50 SE18G24   30.05F
$$

IAZ004>006-015-016-023>025-035-036-281900-
   NORTH CENTRAL IOWA

CITY           SKY/WX    TMP DP  RH WIND       PRES   REMARKS
ALGONA *       SUNNY     77 -31   1 S21       30.06F
CLARION *      SUNNY     79  54  41 S20       30.07F
ESTHERVILLE    MOSUNNY   77  55  46 S20G28    30.04F
6HR MIN TEMP:  57; 6HR MAX TEMP:  78;

FORT DODGE *   CLOUDY    77  59  53 SE8       30.07F
MASON CITY     PTSUNNY   78  56  46 S16G23    30.09F
6HR MIN TEMP:  60; 6HR MAX TEMP:  79;

FOREST CITY *  SUNNY     73  54  49 S16       30.08S
IOWA FALLS *     N/A     77  57  50 S15       30.10F
$$

IAZ007>011-017>019-026>030-037>042-050>054-066-281900-
   NORTHEAST IOWA

CITY           SKY/WX    TMP DP  RH WIND       PRES   REMARKS
CEDAR RAPIDS   MOSUNNY   79  57  46 SE14G23   30.12F HX  80
6HR MIN TEMP:  60; 6HR MAX TEMP:  79;

CHARLES CITY * MOSUNNY   79  54  41 SE20      30.11S
CLINTON *      SUNNY     81  55  41 SE18      30.17F HX  80
DECORAH *      MOSUNNY   79  57  47 S10G21    30.12S HX  80
DUBUQUE        MOSUNNY   77  56  48 S15G22    30.15F
6HR MIN TEMP:  61; 6HR MAX TEMP:  78;

MONTICELLO *   MOSUNNY   79  57  47 S14G21    30.13F HX  80
OELWEIN *        N/A    N/A N/A N/A MISG        N/A
WATERLOO       PTSUNNY   78  56  46 S16       30.10S
6HR MIN TEMP:  61; 6HR MAX TEMP:  79;

$$

IAZ064-065-067-068-078-281900-
   EAST CENTRAL IOWA

CITY           SKY/WX    TMP DP  RH WIND       PRES   REMARKS
DAVENPORT      SUNNY     81  51  35 S13       30.15F HX  80
6HR MIN TEMP:  63; 6HR MAX TEMP:  82;

IOWA CITY      MOSUNNY   79  58  48 S13       30.13F HX  80
6HR MIN TEMP:  60; 6HR MAX TEMP:  79;

MT. PLEASANT * PTSUNNY   77  57  49 SE15      30.14S
MUSCATINE *    SUNNY     79  55  44 SE13G22   30.13F
QUAD CITIES    SUNNY     82  53  36 SE16      30.13F HX  81
6HR MIN TEMP:  60; 6HR MAX TEMP:  82;

$$

IAZ062-063-075>077-085>089-095>099-281900-
   SOUTHEAST IOWA

CITY           SKY/WX    TMP DP  RH WIND       PRES   REMARKS
BURLINGTON     PTSUNNY   77  57  50 SE13      30.13F
6HR MIN TEMP:  63; 6HR MAX TEMP:  78;

FAIRFIELD *    SUNNY     77  57  50 S17       30.13S
FORT MADISON * SUNNY     75  61  60 SE9G17    30.15S
KEOKUK *       SUNNY     79  61  53 E13       30.13S HX  80
OSKALOOSA *      N/A     79  56  45 SE17      30.11F HX  80
CENTERVILLE *  SUNNY     75  75 100 SE13G20   30.12F
OTTUMWA        PTSUNNY   77  59  53 SE15      30.09F
6HR MIN TEMP:  63; 6HR MAX TEMP:  78;

WASHINGTON *   SUNNY     79  57  47 SE15G26   30.14S HX  80
$$

ABBREVIATIONS USED IN REMARKS
   TC - TEMPERATURES IN CELSIUS
  WCI - WIND CHILL INDEX
   HX - HEAT INDEX
  VSB - VISIBILITY
$$



USA.gov is the U.S. government's official web portal to all federal, state and local government web resources and services.